FW0765 Weather Reports


time (UTC)temp
F
wind
direction
speed
knots
gust
knots
rain 1hr
in
rain 24hr
in
rain mn
in
humidity
%
barometer
mb
20260510060039 67 186 1.7 3.5 0.00 0.00 0.00 83 1008.4
20260510054535 67 186 0.9 3.5 0.00 0.00 0.00 84 1008.5
20260510053026 67 186 0.9 2.6 0.00 0.00 0.00 84 1008.6
20260510051525 67 186 1.7 2.6 0.00 0.00 0.00 84 1008.6
20260510050021 68 186 1.7 3.5 0.00 0.00 0.00 83 1008.6
20260510044524 68 186 1.7 3.5 0.00 0.00 0.00 82 1008.7
20260510043026 69 186 1.7 3.5 0.00 0.00 0.00 81 1008.7
20260510041521 70 186 1.7 3.5 0.00 0.00 0.00 81 1008.8
20260510040020 70 186 0.9 5.2 0.00 0.00 0.00 80 1008.6
20260510034523 70 188 2.6 5.2 0.00 0.00 0.00 80 1008.6
20260510033018 71 167 1.7 3.5 0.00 0.00 0.00 79 1008.4
20260510031518 72 167 0.9 2.6 0.00 0.00 0.00 77 1008.3
20260510030019 73 167 1.7 4.3 0.00 0.00 0.00 75 1008.0
20260510024516 74 164 1.7 4.3 0.00 0.00 0.00 72 1007.9
20260510023016 75 163 1.7 4.3 0.00 0.00 0.00 69 1007.7
20260510021515 77 161 0.9 4.3 0.00 0.00 0.00 66 1007.7
20260510020015 78 157 1.7 4.3 0.00 0.00 0.00 62 1007.4
20260510014514 80 185 0.9 1.7 0.00 0.00 0.00 58 1007.2
20260510013015 82 185 0.0 1.7 0.00 0.00 0.00 55 1007.1
20260510011514 84 185 0.9 3.5 0.00 0.00 0.00 52 1006.9
20260510010013 85 171 0.9 4.3 0.00 0.00 0.00 48 1006.8
20260510004513 87 181 1.7 5.2 0.00 0.00 0.00 44 1006.7
20260510003022 87 192 1.7 4.3 0.00 0.00 0.00 44 1006.6
20260510001511 88 225 0.9 7.8 0.00 0.00 0.00 43 1006.6
20260510000011 88 211 3.5 7.0 0.00 0.00 0.00 43 1006.5
20260509234516 88 161 2.6 6.1 0.00 0.00 0.00 43 1006.4
20260509233009 88 184 1.7 6.1 0.00 0.00 0.00 43 1006.6
20260509231512 88 181 2.6 7.8 0.00 0.00 0.00 42 1006.7
20260509230007 88 196 4.3 8.7 0.00 0.00 0.00 47 1006.7
20260509224506 88 220 5.2 10.4 0.00 0.00 0.00 45 1006.8
20260509223005 88 227 3.5 7.0 0.00 0.00 0.00 44 1006.7
20260509221504 88 241 4.3 7.0 0.00 0.00 0.00 49 1007.0
20260509220003 88 213 4.3 7.8 0.00 0.00 0.00 50 1007.1
20260509214604 87 215 5.2 8.7 0.00 0.00 0.00 49 1007.4
20260509213126 87 219 4.3 8.7 0.00 0.00 0.00 46 1007.5
20260509211554 87 232 2.6 8.7 0.00 0.00 0.00 51 1007.7
20260509204548 86 243 3.5 8.7 0.00 0.00 0.00 55 1008.2
20260509203045 85 211 5.2 9.6 0.00 0.00 0.00 55 1008.5
20260509201543 85 185 5.2 10.4 0.00 0.00 0.00 57 1008.7
20260509200040 84 272 3.5 10.4 0.00 0.00 0.00 57 1008.9
20260509194538 84 271 6.1 12.2 0.00 0.00 0.00 59 1009.1
20260509193041 84 217 3.5 7.0 0.00 0.00 0.00 60 1009.3
20260509191539 83 222 6.1 10.4 0.00 0.00 0.00 62 1009.5
20260509190032 82 201 4.3 9.6 0.00 0.00 0.00 62 1009.7
20260509184533 82 200 6.1 12.2 0.00 0.00 0.00 63 1009.9
20260509183031 82 241 3.5 9.6 0.00 0.00 0.00 64 1010.1
20260509181525 80 200 4.3 9.6 0.00 0.00 0.00 65 1010.3
20260509180023 80 220 6.1 9.6 0.00 0.00 0.00 68 1010.8
20260509174520 79 185 3.5 7.8 0.00 0.00 0.00 71 1010.9
20260509173019 78 217 1.7 8.7 0.00 0.00 0.00 76 1011.1
20260509171513 77 265 1.7 6.1 0.00 0.00 0.00 79 1011.2
20260509170013 75 202 2.6 6.1 0.00 0.00 0.00 82 1011.1
20260509164504 73 226 2.6 7.0 0.00 0.00 0.00 86 1011.3
20260509163100 71 215 4.3 8.7 0.00 0.00 0.00 89 1011.4
20260509161557 69 206 5.2 8.7 0.00 0.00 0.00 92 1011.4
20260509160051 67 195 5.2 10.4 0.00 0.00 0.00 95 1011.4
20260509154548 67 205 2.6 6.1 0.00 0.00 0.00 96 1011.7
20260509153059 65 211 3.5 6.1 0.00 0.00 0.00 96 1011.7
20260509151548 64 182 2.6 7.0 0.00 0.00 0.00 95 1012.0
20260509150046 64 175 1.7 2.6 0.00 0.00 0.00 96 1012.3
20260509144538 64 103 0.9 2.6 0.00 0.00 0.00 95 1012.1
20260509143037 63 93 0.0 1.7 0.00 0.00 0.00 96 1012.1
20260509141535 63 93 0.9 1.7 0.00 0.00 0.00 95 1012.0
20260509140040 62 93 0.9 3.5 0.00 0.00 0.00 95 1011.8
20260509134534 62 105 2.6 5.2 0.00 0.00 0.00 95 1011.5
20260509133032 62 118 1.7 3.5 0.00 0.00 0.00 95 1011.5
20260509131535 62 168 2.6 5.2 0.00 0.00 0.00 95 1011.5
20260509130030 62 184 0.0 2.6 0.00 0.00 0.00 95 1011.3
20260509124529 61 184 0.0 2.6 0.00 0.00 0.00 95 1011.0
20260509123027 61 184 0.0 3.5 0.00 0.00 0.00 95 1010.8
20260509121526 61 184 2.6 7.0 0.00 0.00 0.00 95 1010.5
20260509120027 60 161 4.3 7.0 0.00 0.00 0.00 94 1010.6
20260509114523 60 125 2.6 5.2 0.00 0.00 0.00 94 1010.7
20260509113023 60 121 2.6 5.2 0.00 0.00 0.00 95 1011.1
20260509111523 59 106 1.7 3.5 0.00 0.00 0.00 94 1010.8
20260509110022 59 92 0.0 1.7 0.00 0.00 0.00 94 1010.7
20260509104522 59 92 0.0 0.9 0.00 0.00 0.00 94 1010.9
20260509103021 60 91 0.9 3.5 0.00 0.00 0.00 94 1010.8
20260509101520 59 78 0.0 3.5 0.00 0.00 0.00 94 1011.5
20260509100020 59 79 0.0 2.6 0.00 0.00 0.00 94 1011.2
20260509094525 59 78 0.9 3.5 0.00 0.00 0.00 94 1010.7
20260509093020 59 76 0.0 0.0 0.00 0.00 0.00 93 1010.7
20260509091518 59 76 0.0 0.0 0.00 0.00 0.00 93 1011.0
20260509090017 59 76 0.0 1.7 0.00 0.00 0.00 93 1010.7
20260509084515 59 64 0.0 1.7 0.00 0.01 0.00 93 1010.7
20260509083014 60 63 0.0 0.9 0.00 0.01 0.00 93 1010.8
20260509081516 60 63 0.0 2.6 0.00 0.01 0.00 93 1011.0
20260509080013 60 63 0.0 0.0 0.00 0.01 0.00 93 1011.7
20260509074511 61 168 3.5 6.1 0.00 0.02 0.00 93 1011.3
20260509073020 61 169 0.0 2.6 0.00 0.02 0.00 93 1010.5
20260509071507 60 169 0.9 1.7 0.00 0.02 0.00 92 1009.9
20260509070004 61 169 0.0 0.9 0.00 0.02 0.00 92 1009.9
20260509064502 61 169 0.0 2.6 0.00 0.02 0.00 92 1009.7
20260509063001 61 169 1.7 4.3 0.00 0.02 0.00 92 1009.7
20260509061602 61 169 1.7 2.6 0.00 0.02 0.00 92 1009.8